NDF4TP EDDB-EKCH

Flight info

Callsign NDF4TP
Flight time 0h 47m
Altitude 32000
Route GERGA4N/24L GERGA M725 RENKI Y89 USEDU DCT BINZE Z14 BANKU DCT KOSEB T298 MONAK MONAK5C
Aircraft A320/M-SDE3FGHIRWY/LB1

Departure

Time 2026-05-03 20:16
Airport Berlin Brandenburg Airport (EDDB)

Arrival

Time 2026-05-03 21:04
Airport Copenhagen Kastrup Airport (EKCH)
Time Latitude Longitude Altitude Speed Heading
2026-05-03 20:15 52.35557 13.50658 154 ft 10 kts 219°
2026-05-03 20:15 52.35494 13.50575 154 ft 13 kts 219°
2026-05-03 20:15 52.35425 13.50468 154 ft 15 kts 227°
2026-05-03 20:15 52.35367 13.50316 154 ft 17 kts 248°
2026-05-03 20:16 52.35285 13.49968 154 ft 63 kts 249°
2026-05-03 20:16 52.35054 13.48996 155 ft 118 kts 249°
2026-05-03 20:16 52.34705 13.47523 197 ft 155 kts 249°
2026-05-03 20:16 52.34313 13.45930 799 ft 151 kts 244°
2026-05-03 20:17 52.33746 13.44473 1392 ft 151 kts 235°
2026-05-03 20:17 52.33045 13.43220 2051 ft 148 kts 229°
2026-05-03 20:17 52.32294 13.41921 2325 ft 168 kts 232°
2026-05-03 20:17 52.31480 13.40392 2532 ft 190 kts 232°
2026-05-03 20:18 52.30561 13.38655 2788 ft 212 kts 231°
2026-05-03 20:18 52.29566 13.36789 3328 ft 221 kts 230°
2026-05-03 20:18 52.28540 13.34889 4024 ft 225 kts 229°
2026-05-03 20:18 52.27494 13.32958 4739 ft 228 kts 227°
2026-05-03 20:19 52.26436 13.31010 5455 ft 230 kts 226°
2026-05-03 20:19 52.25358 13.29069 6192 ft 231 kts 220°
2026-05-03 20:19 52.24005 13.27706 6853 ft 231 kts 197°
2026-05-03 20:19 52.22414 13.27420 7566 ft 233 kts 173°
2026-05-03 20:20 52.20891 13.28312 8291 ft 239 kts 149°
2026-05-03 20:20 52.19733 13.30306 9059 ft 250 kts 123°
2026-05-03 20:20 52.19237 13.33082 9803 ft 264 kts 99°
2026-05-03 20:20 52.19351 13.36114 10435 ft 278 kts 81°
2026-05-03 20:21 52.19871 13.39303 10679 ft 302 kts 78°
2026-05-03 20:21 52.20454 13.42665 11179 ft 312 kts 76°
2026-05-03 20:21 52.21055 13.46078 11884 ft 315 kts 76°
2026-05-03 20:21 52.21664 13.49534 12554 ft 319 kts 76°
2026-05-03 20:22 52.22274 13.53066 13226 ft 326 kts 76°
2026-05-03 20:22 52.22888 13.56638 13890 ft 329 kts 76°
2026-05-03 20:22 52.23509 13.60261 14498 ft 334 kts 76°
2026-05-03 20:22 52.24133 13.63928 15095 ft 337 kts 77°
2026-05-03 20:23 52.24761 13.67633 15711 ft 341 kts 77°
2026-05-03 20:23 52.25396 13.71387 16343 ft 345 kts 77°
2026-05-03 20:23 52.26036 13.75173 16966 ft 348 kts 77°
2026-05-03 20:23 52.26677 13.78997 17562 ft 351 kts 77°
2026-05-03 20:24 52.27326 13.82868 18158 ft 354 kts 77°
2026-05-03 20:24 52.27981 13.86767 18670 ft 358 kts 76°
2026-05-03 20:24 52.28937 13.90546 19186 ft 364 kts 60°
2026-05-03 20:24 52.30506 13.93800 19693 ft 367 kts 43°
2026-05-03 20:25 52.32582 13.96290 19987 ft 378 kts 26°
2026-05-03 20:25 52.35086 13.97763 20115 ft 388 kts
2026-05-03 20:25 52.37802 13.98335 20241 ft 401 kts
2026-05-03 20:25 52.40617 13.98866 20363 ft 414 kts
2026-05-03 20:26 52.43521 13.99422 20504 ft 427 kts
2026-05-03 20:26 52.46497 14.00012 20749 ft 435 kts
2026-05-03 20:26 52.49513 14.00626 21137 ft 438 kts
2026-05-03 20:26 52.52550 14.01248 21546 ft 441 kts
2026-05-03 20:27 52.55601 14.01880 21938 ft 444 kts
2026-05-03 20:27 52.58681 14.02470 22346 ft 446 kts
2026-05-03 20:27 52.61743 14.02479 22747 ft 445 kts 352°
2026-05-03 20:27 52.64821 14.01866 23151 ft 446 kts 349°
2026-05-03 20:28 52.67909 14.01197 23537 ft 449 kts 349°
2026-05-03 20:28 52.71017 14.00531 23869 ft 452 kts 349°
2026-05-03 20:28 52.74143 13.99866 24208 ft 453 kts 349°
2026-05-03 20:28 52.77277 13.99200 24555 ft 455 kts 349°
2026-05-03 20:29 52.80425 13.98526 24906 ft 457 kts 349°
2026-05-03 20:29 52.83580 13.97850 25250 ft 459 kts 349°
2026-05-03 20:29 52.86751 13.97174 25600 ft 460 kts 349°
2026-05-03 20:29 52.89944 13.96540 25950 ft 464 kts 353°
2026-05-03 20:30 52.93186 13.96510 26301 ft 470 kts
2026-05-03 20:30 52.96458 13.97100 26643 ft 473 kts
2026-05-03 20:30 52.99729 13.97715 27020 ft 474 kts
2026-05-03 20:30 53.02996 13.98317 27522 ft 473 kts
2026-05-03 20:31 53.06259 13.98908 28048 ft 470 kts
2026-05-03 20:31 53.09505 13.99498 28570 ft 468 kts
2026-05-03 20:31 53.12734 14.00088 29076 ft 466 kts
2026-05-03 20:31 53.15953 14.00677 29586 ft 465 kts
2026-05-03 20:32 53.19161 14.01265 30091 ft 463 kts
2026-05-03 20:32 53.22362 14.01857 30533 ft 461 kts
2026-05-03 20:32 53.25504 14.02442 30951 ft 460 kts
2026-05-03 20:32 53.28675 14.03039 31376 ft 458 kts
2026-05-03 20:33 53.31840 14.03637 31779 ft 458 kts
2026-05-03 20:33 53.35006 14.04236 31889 ft 459 kts
2026-05-03 20:33 53.38206 14.04838 31906 ft 467 kts
2026-05-03 20:34 53.44698 14.06049 31900 ft 470 kts
2026-05-03 20:34 53.51215 14.07276 31900 ft 472 kts
2026-05-03 20:35 53.57759 14.08524 31895 ft 473 kts
2026-05-03 20:35 53.64277 14.08421 31895 ft 466 kts 347°
2026-05-03 20:36 53.70540 14.06122 31906 ft 464 kts 343°
2026-05-03 20:36 53.76837 14.03738 31900 ft 464 kts 343°
2026-05-03 20:37 53.83144 14.01352 31884 ft 464 kts 343°
2026-05-03 20:37 53.89439 13.98947 31884 ft 464 kts 343°
2026-05-03 20:38 53.95686 13.96347 31889 ft 460 kts 337°
2026-05-03 20:38 54.01614 13.92345 31878 ft 458 kts 334°
2026-05-03 20:39 54.07537 13.88269 31877 ft 459 kts 334°
2026-05-03 20:39 54.13457 13.84187 31888 ft 459 kts 334°
2026-05-03 20:40 54.19391 13.80086 31874 ft 461 kts 334°
2026-05-03 20:40 54.25331 13.75968 31891 ft 461 kts 333°
2026-05-03 20:41 54.31273 13.71823 31873 ft 461 kts 333°
2026-05-03 20:41 54.37212 13.67670 31868 ft 461 kts 333°
2026-05-03 20:42 54.43114 13.63537 31865 ft 461 kts 333°
2026-05-03 20:42 54.49049 13.59374 31858 ft 461 kts 333°
2026-05-03 20:43 54.54985 13.55193 31871 ft 460 kts 333°
2026-05-03 20:43 54.60913 13.50997 31874 ft 461 kts 333°
2026-05-03 20:44 54.66468 13.45778 31861 ft 450 kts 316°
2026-05-03 20:44 54.70645 13.37945 31848 ft 439 kts 298°
2026-05-03 20:45 54.73157 13.28513 31828 ft 429 kts 284°
2026-05-03 20:45 54.74982 13.18683 31854 ft 425 kts 284°
2026-05-03 20:46 54.76758 13.09046 31887 ft 418 kts 283°
2026-05-03 20:46 54.78497 12.99457 31848 ft 417 kts 282°
2026-05-03 20:47 54.79354 12.89727 31365 ft 410 kts 268°
2026-05-03 20:47 54.79225 12.84664 29870 ft 422 kts 262°
2026-05-03 20:47 54.78967 12.79522 28227 ft 434 kts 262°
2026-05-03 20:47 54.78697 12.74356 26885 ft 446 kts 262°
2026-05-03 20:48 54.78510 12.68898 25814 ft 450 kts 269°
2026-05-03 20:48 54.78913 12.63509 24883 ft 455 kts 281°
2026-05-03 20:48 54.80004 12.58353 24033 ft 458 kts 293°
2026-05-03 20:48 54.81722 12.53693 23225 ft 460 kts 305°
2026-05-03 20:49 54.83922 12.49669 22283 ft 459 kts 311°
2026-05-03 20:49 54.86183 12.45794 21404 ft 454 kts 311°
2026-05-03 20:49 54.88467 12.42036 20578 ft 452 kts 317°
2026-05-03 20:49 54.91162 12.39200 19808 ft 456 kts 333°
2026-05-03 20:50 54.94221 12.37714 19021 ft 460 kts 349°
2026-05-03 20:50 54.97424 12.37697 18258 ft 463 kts
2026-05-03 20:50 55.00530 12.39149 17397 ft 463 kts 20°
2026-05-03 20:50 55.03401 12.41685 16548 ft 462 kts 31°
2026-05-03 20:51 55.06016 12.44763 16128 ft 440 kts 33°
2026-05-03 20:51 55.08465 12.47657 15932 ft 409 kts 33°
2026-05-03 20:51 55.10755 12.50346 15815 ft 388 kts 33°
2026-05-03 20:51 55.12991 12.52962 15300 ft 391 kts 33°
2026-05-03 20:52 55.15359 12.55724 14699 ft 427 kts 33°
2026-05-03 20:52 55.17898 12.58688 14083 ft 444 kts 33°
2026-05-03 20:52 55.20488 12.61726 12979 ft 451 kts 33°
2026-05-03 20:52 55.23123 12.64624 12358 ft 443 kts 25°
2026-05-03 20:53 55.25925 12.66520 11791 ft 432 kts 17°
2026-05-03 20:53 55.28794 12.68205 11102 ft 427 kts 16°
2026-05-03 20:53 55.31571 12.69785 10424 ft 423 kts 15°
2026-05-03 20:53 55.34362 12.71352 9760 ft 419 kts 15°
2026-05-03 20:54 55.36235 12.72400 9264 ft 416 kts 15°
2026-05-03 20:54 55.42571 12.75989 7905 ft 409 kts 16°
2026-05-03 20:54 55.45268 12.77534 7503 ft 407 kts 16°
2026-05-03 20:55 55.47955 12.79083 7102 ft 405 kts 17°
2026-05-03 20:55 55.50579 12.80605 6786 ft 382 kts 17°
2026-05-03 20:55 55.53002 12.82022 6589 ft 352 kts 17°
2026-05-03 20:55 55.55241 12.83326 6506 ft 325 kts 16°
2026-05-03 20:56 55.57315 12.84616 6325 ft 311 kts 19°
2026-05-03 20:56 55.59306 12.85977 6123 ft 302 kts 20°
2026-05-03 20:56 55.60598 12.86907 5918 ft 303 kts 21°
2026-05-03 20:56 55.62499 12.88470 5628 ft 300 kts 32°
2026-05-03 20:57 55.64132 12.90731 5294 ft 299 kts 43°
2026-05-03 20:57 55.65667 12.93197 5058 ft 294 kts 42°
2026-05-03 20:57 55.67174 12.95575 4909 ft 286 kts 41°
2026-05-03 20:57 55.68650 12.97883 4721 ft 280 kts 41°
2026-05-03 20:58 55.70151 13.00029 4514 ft 275 kts 29°
2026-05-03 20:58 55.71962 13.00835 4316 ft 266 kts 353°
2026-05-03 20:58 55.73649 12.99851 4128 ft 249 kts 319°
2026-05-03 20:58 55.74841 12.97764 3927 ft 237 kts 305°
2026-05-03 20:59 55.75924 12.95581 3726 ft 235 kts 306°
2026-05-03 20:59 55.76861 12.93273 3522 ft 226 kts 285°
2026-05-03 20:59 55.77012 12.90609 3324 ft 216 kts 253°
2026-05-03 20:59 55.76356 12.88315 3124 ft 205 kts 224°
2026-05-03 21:00 55.75318 12.86647 2920 ft 199 kts 220°
2026-05-03 21:00 55.74634 12.85588 2785 ft 196 kts 220°
2026-05-03 21:00 55.73293 12.83499 2537 ft 186 kts 220°
2026-05-03 21:00 55.72349 12.82025 2341 ft 176 kts 220°
2026-05-03 21:01 55.71481 12.80667 2148 ft 156 kts 220°
2026-05-03 21:01 55.70713 12.79469 2082 ft 142 kts 219°
2026-05-03 21:01 55.69980 12.78324 1940 ft 138 kts 220°
2026-05-03 21:01 55.69259 12.77203 1788 ft 138 kts 220°
2026-05-03 21:02 55.68539 12.76081 1628 ft 138 kts 218°
2026-05-03 21:02 55.67819 12.74964 1451 ft 139 kts 219°
2026-05-03 21:02 55.67091 12.73836 1297 ft 139 kts 219°
2026-05-03 21:02 55.66354 12.72692 1049 ft 139 kts 219°
2026-05-03 21:03 55.65635 12.71573 869 ft 140 kts 219°
2026-05-03 21:03 55.64898 12.70418 688 ft 142 kts 219°
2026-05-03 21:03 55.64148 12.69254 478 ft 144 kts 220°
2026-05-03 21:03 55.63384 12.68073 301 ft 146 kts 220°
2026-05-03 21:04 55.62624 12.66884 66 ft 146 kts 220°
2026-05-03 21:04 55.61901 12.65768 21 ft 108 kts 221°
2026-05-03 21:04 55.61537 12.65205 21 ft 35 kts 221°
2026-05-03 21:04 55.61418 12.65014 22 ft 19 kts 222°
2026-05-03 21:05 55.61325 12.64848 22 ft 20 kts 233°
2026-05-03 21:05 55.61260 12.64643 23 ft 21 kts 246°
2026-05-03 21:05 55.61209 12.64387 19 ft 20 kts 252°
2026-05-03 21:05 55.61189 12.64172 15 ft 17 kts 290°
2026-05-03 21:06 55.61290 12.64124 16 ft 17 kts 29°
2026-05-03 21:06 55.61391 12.64241 16 ft 18 kts 33°
2026-05-03 21:06 55.61491 12.64355 20 ft 15 kts 33°
2026-05-03 21:06 55.61553 12.64425 20 ft 9 kts 32°
2026-05-03 21:07 55.61601 12.64481 20 ft 7 kts 33°
2026-05-03 21:07 55.61616 12.64498 19 ft 0 kts 33°
2026-05-03 21:07 55.61619 12.64502 19 ft 1 kts 33°
2026-05-03 21:08 55.61629 12.64513 20 ft 5 kts 33°
2026-05-03 21:08 55.61676 12.64567 21 ft 12 kts 33°
2026-05-03 21:08 55.61760 12.64664 20 ft 16 kts 33°
2026-05-03 21:08 55.61842 12.64757 20 ft 19 kts 32°
2026-05-03 21:09 55.61962 12.64894 20 ft 21 kts 33°
2026-05-03 21:09 55.62041 12.64986 21 ft 12 kts 33°
2026-05-03 21:09 55.62104 12.65060 23 ft 9 kts 33°
2026-05-03 21:09 55.62117 12.65074 23 ft 0 kts 33°
2026-05-03 21:10 55.62117 12.65075 23 ft 0 kts 33°
2026-05-03 21:10 55.62155 12.65118 25 ft 14 kts 33°
2026-05-03 21:10 55.62216 12.65178 26 ft 13 kts 22°
2026-05-03 21:11 55.62283 12.65199 22 ft 16 kts
2026-05-03 21:11 55.62367 12.65192 23 ft 18 kts 356°
2026-05-03 21:11 55.62451 12.65185 20 ft 20 kts 358°
2026-05-03 21:11 55.62532 12.65179 19 ft 11 kts 356°
2026-05-03 21:12 55.62576 12.65175 21 ft 1 kts 358°
2026-05-03 21:12 55.62604 12.65176 19 ft 9 kts
2026-05-03 21:12 55.62672 12.65181 19 ft 12 kts
2026-05-03 21:12 55.62739 12.65179 19 ft 0 kts 356°